Regional Weather Roundup
Issued by NWS Northern Indiana

Home | Current Version | Previous Version | Text Only | Print | Product List | Glossary Off
Versions: 1 2 3 4 5 6 7 8 9 10 11 12 13 14 15 16 17 18 19 20 21 22 23 24 25 26 27 28 29 30 31 32 33 34 35 36 37 38 39 40 41 42 43 44 45 46 47 48 49 50

000
ASUS43 KIWX 281200
RWRIWX

KIWX WEATHER ROUNDUP
NATIONAL WEATHER SERVICE NORTHERN INDIANA
800 AM EDT WED JUN 28 2017

NOTE: "FAIR" INDICATES FEW OR NO CLOUDS BELOW 12,000 FEET WITH NO
SIGNIFICANT WEATHER AND/OR OBSTRUCTIONS TO VISIBILITY.

* THESE STATIONS ARE NOT UNDER NWS QUALITY CONTROL. THEY ALSO MAY NOT
  REPORT WEATHER SUCH AS PRECIPITATION OR FOG.

INZ001>027-281300-
NORTHERN INDIANA

CITY           SKY/WX    TMP DP  RH WIND       PRES   REMARKS
GARY*          CLOUDY    63  46  55 S10       30.02F
MICHIGAN CITY* CLOUDY    61  46  59 S7        30.04F
KNOX*          MOSUNNY   61  37  41 S9        30.05F
SOUTH BEND     CLOUDY    62  49  62 S10       30.06F
6HR MIN TEMP:  54; 6HR MAX TEMP:  62;

ELKHART*       MOSUNNY   59  48  67 S9        30.07F
GOSHEN         CLOUDY    61  48  62 S7        30.08F
6HR MIN TEMP:  50; 6HR MAX TEMP:  61;

MONTICELLO*    CLOUDY    59  49  69 SE7       30.06F
6HR MIN TEMP:  58; 6HR MAX TEMP:  62;

FORT WAYNE     PTSUNNY   60  52  74 S5        30.12S
6HR MIN TEMP:  53; 6HR MAX TEMP:  60;

PERU/GRISSOM   SUNNY     60  53  77 S8        30.08F
6HR MIN TEMP:  54; 6HR MAX TEMP:  60;


$$
INZ028>050-281300-
CENTRAL INDIANA

CITY           SKY/WX    TMP DP  RH WIND       PRES   REMARKS
LAFAYETTE      CLOUDY    59  52  77 CALM      30.07F
6HR MIN TEMP:  52; 6HR MAX TEMP:  59;

KOKOMO*        SUNNY     60  52  74 S10       30.11S
6HR MIN TEMP:  53; 6HR MAX TEMP:  60;

MUNCIE*        MOSUNNY   63  49  60 S7        30.13R
6HR MIN TEMP:  57; 6HR MAX TEMP:  63;

INDIANAPOLIS   CLOUDY    60  51  72 SE10      30.10F
6HR MIN TEMP:  55; 6HR MAX TEMP:  61;


$$
MIZ043>046-050>051-056>058-064>065-071>073-077>080-281300-
SOUTHWEST LOWER MICHIGAN

CITY           SKY/WX    TMP DP  RH WIND       PRES   REMARKS
BATTLE CREEK   SUNNY     60  49  66 S8        30.09R
6HR MIN TEMP:  51; 6HR MAX TEMP:  60;

BENTON HARBOR  CLOUDY    62  48  60 SE6       30.03F
6HR MIN TEMP:  54; 6HR MAX TEMP:  62;

HOLLAND        SUNNY     61  49  64 S9        30.03F
6HR MIN TEMP:  52; 6HR MAX TEMP:  61;

GRAND RAPIDS   PTSUNNY   61  50  67 S8        30.05S
6HR MIN TEMP:  53; 6HR MAX TEMP:  61;

KALAMAZOO      CLOUDY    60  48  64 S9        30.08F
6HR MIN TEMP:  51; 6HR MAX TEMP:  60;


$$
OHZ001>008-015>018-024>025-281300-
NORTHWEST OHIO

CITY           SKY/WX    TMP DP  RH WIND       PRES   REMARKS
DEFIANCE       SUNNY     57  51  80 S5        30.13R
6HR MIN TEMP:  48; 6HR MAX TEMP:  57;

FINDLAY        SUNNY     60  51  72 S6        30.13S
6HR MIN TEMP:  53; 6HR MAX TEMP:  60;

TOLEDO EXPRESS SUNNY     57  54  89 CALM      30.12S
6HR MIN TEMP:  47; 6HR MAX TEMP:  57;

TOLEDO METCALF SUNNY     59  52  77 SW7       30.14R
6HR MIN TEMP:  53; 6HR MAX TEMP:  59;

LIMA           SUNNY     59  49  69 S7        30.15R
6HR MIN TEMP:  52; 6HR MAX TEMP:  59;


$$
AND FOR LAKE MICHIGAN COASTAL AND OPEN LAKE BUOY OBSERVATIONS

STATION/POSITION TEMP    WIND        PRES    VSBY  WAVE
                 AIR SEA DIR/SP/G                  HT/PER
                 (F)     (DEG/KT/KT) (MB)    (MI)  (FT/S)
CALUMET HARBOR    65     170/  9/ 13 1015.5F
MICHIGAN CITY     63     160/ 13/ 16   N/A
BURNS HARBOR      64     180/ 10/ 18 1016.9F
SOUTH LAKE BUOY   63 61  200/ 16/ 17 1016.0          2/ 4
4 MI NW BRIDGMAN  64 68  180/ 16/ 19 1016.9F         2/ 3
MICHIGAN CITY     63 66  170/ 16/ 19   N/A           2/ 2

$$
&&




USA.gov is the U.S. government's official web portal to all federal, state and local government web resources and services.